Regional Weather Roundup
Issued by NWS

Home | Current Version | Previous Version | Graphics & Text | Print | Product List | Glossary Off
Versions: 1 2 3 4 5 6 7 8 9 10 11 12 13 14 15 16 17 18 19 20 21 22 23 24 25 26 27 28 29 30 31 32 33 34 35 36 37 38 39 40 41 42 43 44 45 46 47 48 49 50

000
ASUS43 KMKX 031421
RWRWI

WISCONSIN REGIONAL WEATHER ROUNDUP
NATIONAL WEATHER SERVICE MILWAUKEE/SULLIVAN WI
900 AM CDT FRI JUL 03 2015

NOTE: "FAIR" INDICATES FEW OR NO CLOUDS BELOW 12,000 FEET WITH NO
SIGNIFICANT WEATHER AND/OR OBSTRUCTIONS TO VISIBILITY.

WIZ001-002-006>008-014>016-023>028-031500-
NORTHWEST WISCONSIN

CITY           SKY/WX    TMP DP  RH WIND       PRES   REMARKS
SUPERIOR ARPT  PTSUNNY   64  57  79 SW10      29.91S
ASHLAND        PTSUNNY   66  58  75 SW9       29.91F
HAYWARD        MOSUNNY   64  55  72 SW8       29.96S
SIREN          MOSUNNY   65  55  68 W5        29.96S
CUMBERLAND     SUNNY     63  55  77 W7        29.98S
RICE LAKE      SUNNY     64  56  75 SW3       29.99F
CHETEK         SUNNY     64  58  82 CALM      29.99R
LADYSMITH      SUNNY     64  57  77 SW6       30.00S
EAU CLAIRE     SUNNY     65  57  75 SW6       29.97F
MENOMONIE      SUNNY     65  58  77 SW3       29.99S
NEW RICHMOND   SUNNY     65  58  78 SW6       29.98F
OSCEOLA        SUNNY     65  62  91 SW3       30.00F
$$

WIZ003>005-009-010-017-018-031500-
NORTH CENTRAL WISCONSIN

CITY           SKY/WX    TMP DP  RH WIND       PRES   REMARKS
MANITOWISH WTR PTSUNNY   61  56  83 SW6       29.96S
ARBOR VITAE    MOSUNNY   62  55  77 SW5       29.97S
WOODRUFF       MOSUNNY   62  55  77 SW5       29.97S
RHINELANDER    MOSUNNY   62  52  69 SW7       29.98F
EAGLE RIVER    MOSUNNY   61  52  72 SW7       29.96S
LAND O LAKES   PTSUNNY   61  55  78 SW3       29.97S
PHILLIPS       MOSUNNY   64  56  74 SW7       29.97S
TOMAHAWK       SUNNY     62  54  74 CALM      29.98F
MEDFORD        SUNNY     62  55  80 SW3       29.99F
MERRILL        SUNNY     60  54  80 SW3       29.99S
$$

WIZ029-030-035-036-043>047-031500-
CENTRAL WISCONSIN

CITY           SKY/WX    TMP DP  RH WIND       PRES   REMARKS
WAUSAU         SUNNY     62  52  69 S6        29.98S
MOSINEE        SUNNY     59  55  88 S5        30.01S
MARSHFIELD     SUNNY     62  54  74 S5        30.00S
STEVENS POINT  SUNNY     60  50  68 SW6       30.01S
WAUPACA        SUNNY     65  55  69 SW6       30.01S
WAUTOMA        SUNNY     65  55  69 SW3       30.01S
WISC RAPIDS    SUNNY     62  52  69 SW5       30.02R
CAMP DOUGLAS   SUNNY     60  60 100 CALM      30.00R
$$

WIZ011>013-019>022-031-037>040-048>050-031500-
NORTHEAST WISCONSIN

CITY           SKY/WX    TMP DP  RH WIND       PRES   REMARKS
ANTIGO         SUNNY     60  51  72 W7        30.00S
SHAWANO        SUNNY     64  53  68 SW7       29.99F
OCONTO         SUNNY     63  53  71 SW7       29.98S
STURGEON BAY   SUNNY     64  54  68 SW7       30.01S
GREEN BAY      SUNNY     64  54  69 SW6       30.00S
MANITOWOC      SUNNY     66  52  60 MISG      30.01S
APPLETON       SUNNY     61  52  72 W7        30.01
CLINTONVILLE   SUNNY     63  52  67 SW7       30.00S
OSHKOSH        SUNNY     64  52  64 W3        30.00S
$$

WIZ032>034-041-042-053>061-031500-
SOUTHWEST WISCONSIN

CITY           SKY/WX    TMP DP  RH WIND       PRES   REMARKS
LA CROSSE      SUNNY     62  58  86 SE6       30.00S
SPARTA         SUNNY     60  52  75 CALM      30.01S
VIROQUA        SUNNY     64  54  69 NW3       30.02R
BOSCOBEL       MOSUNNY   62  57  83 CALM      30.01S
PRAIRIE DU CHI MOSUNNY   59  57  95 CALM      30.01R
PLATTEVILLE    SUNNY     63  56  78 CALM      30.00F
$$

WIZ056-057-062-063-064-067-068-031500-
SOUTH CENTRAL WISCONSIN

CITY           SKY/WX    TMP DP  RH WIND       PRES   REMARKS
REEDSBURG      SUNNY     61  55  80 CALM      30.00S
BARABOO/DELLS  SUNNY     62  53  72 CALM      30.01R
LONE ROCK      PTSUNNY   57  55  93 CALM      30.02S
MINERAL POINT  SUNNY     64  54  68 CALM      30.01S
MADISON        MOSUNNY   64  49  57 CALM      30.00F
MIDDLETON      MOSUNNY   63  55  74 CALM      30.01S
WATERTOWN      MOSUNNY   62  51  68 CALM      30.00F
MONROE         PTSUNNY   59  52  77 N3        30.00S
JANESVILLE     SUNNY     63  54  72 N5        29.99S
$$

WIZ051-052-058>065-066-070>072-031500-
SOUTHEAST WISCONSIN

CITY           SKY/WX    TMP DP  RH WIND       PRES   REMARKS
MILWAUKEE      PTSUNNY   62  53  72 NE6       30.00S
WAUKESHA       SUNNY     63  50  63 CALM      30.01S
MILWAUKEE/TIMM SUNNY     64  48  55 CALM      30.01S
RACINE         PTSUNNY   62  53  72 NE6       30.01S
BURLINGTON     PTSUNNY   62  53  73 CALM      29.99F
KENOSHA        PTSUNNY   64  56  75 E3        30.00S
FOND DU LAC    SUNNY     64  50  60 CALM      30.01R
SHEBOYGAN      SUNNY     65  53  65 SW3       30.00S
WEST BEND      SUNNY     64  52  63 S3        30.00S
JUNEAU         SUNNY     62  51  65 CALM      30.02S
$$

LSZ147-162-031500-
LAKE SUPERIOR

STATION/POSITION TIME  TEMP    WIND        PRES    WAVE
                       AIR SEA DIR/SP/G            HT/PER
                 (UTC) (F)     (DEG/KT/KT) (MB)    (FT/S)
W MID LAKE BUOY  1350   48 38  220/ 14/ 16 1011.1S   2/ 4
DEVILS ISLAND    1400   64     240/ 21/ 24 1011.3F
SAXON HARBOR     1340   66     200/  6/ 10 1012.5F
$$

LMZ867-665-643>646-031500-
LAKE MICHIGAN

STATION/POSITION TIME  TEMP    WIND        PRES    WAVE
                       AIR SEA DIR/SP/G            HT/PER
                 (UTC) (F)     (DEG/KT/KT) (MB)    (FT/S)
CHAMBERS ISLAND  1300   62     210/  6/  9 1014.9F
S GREEN BAY BUOY 1400   64 68  230/ 12/ 14 1016.6F
N MID LAKE BUOY  1350   50 44  190/ 10/ 12 1014.7F   0
NORTHPORT PIER   1300   64     220/  3/  7 1014.9F
SISTER BAY       1344   66     270/ 10/ 11   N/A
ALGOMA LAKESHORE 1310             CALM       N/A
KEWAUNEE LAKESHO 1300   62      CALM  /  2 1014.9R
SHEBOYGAN LAKESH 1400   60     130/  3/  4 1016.2S
PORT WASHINGTON  1300   63      60/  1/  2 1016.6
ATWATER BUOY     1400   59      10/  4/  6 1017.2F
MILWAUKEE LAKESH 1400   59      50/  7/  8   N/A
KENOSHA   LAKESH 1400   59      40/  6/  6 1015.9R
$$

TC  - TEMPERATURE IN CELSIUS
VSB - VISIBILITY IN STATUTE MILES
WCI - WIND CHILL INDEX
HX  - HEAT INDEX




USA.gov is the U.S. government's official web portal to all federal, state and local government web resources and services.